• In United Kingdom
  • List of Countries
  • For 7 days
  • Water Temperature
  • Satellite Maps
  • Weather Map
  • Weather Widgets
  • user-avatar
    Login

    Hourly Weather Korçe

    Today, 19 September, Tuesday

    Time Temperature Precipitation Wind Pressure Humidity
    00:00 +14°C° 0 mm 1 mps 666 mmHg 81%
    01:00 +14°C° 0 mm 1 mps 665 mmHg 84%
    02:00 +13°C° 0 mm 1 mps 665 mmHg 83%
    03:00 +13°C° 0 mm 1 mps 665 mmHg 81%
    04:00 +13°C° 0 mm 1 mps 665 mmHg 80%
    05:00 +14°C° 0 mm 1 mps 665 mmHg 73%
    06:00 +15°C° 0 mm 1 mps 665 mmHg 66%
    07:00 +16°C° 0 mm 2 mps 666 mmHg 57%
    08:00 +19°C° 0 mm 2 mps 666 mmHg 47%
    09:00 +21°C° 0 mm 2 mps 667 mmHg 36%
    10:00 +24°C° 0 mm 2 mps 667 mmHg 26%
    11:00 +24°C° 0 mm 3 mps 667 mmHg 26%
    12:00 +25°C° 0 mm 4 mps 667 mmHg 26%
    13:00 +25°C° 0 mm 4 mps 667 mmHg 29%
    14:00 +23°C° 0 mm 4 mps 667 mmHg 33%
    15:00 +24°C° 0 mm 3 mps 666 mmHg 36%
    16:00 +22°C° 0 mm 3 mps 666 mmHg 40%
    17:00 +20°C° 0 mm 3 mps 666 mmHg 48%
    18:00 +18°C° 0 mm 2 mps 665 mmHg 57%
    19:00 +16°C° 0 mm 1 mps 665 mmHg 65%
    20:00 +15°C° 0 mm 1 mps 665 mmHg 68%
    21:00 +15°C° 0 mm 1 mps 665 mmHg 72%
    22:00 +14°C° 0 mm 1 mps 664 mmHg 75%
    23:00 +14°C° 0 mm 1 mps 664 mmHg 77%

    Tomorrow, 20 September, Wednesday

    Time Temperature Precipitation Wind Pressure Humidity
    00:00 +13°C° 0 mm 1 mps 664 mmHg 80%
    01:00 +13°C° 0 mm 1 mps 664 mmHg 82%
    02:00 +13°C° 0 mm 1 mps 664 mmHg 84%
    03:00 +12°C° 0 mm 1 mps 664 mmHg 87%
    04:00 +12°C° 0 mm 1 mps 663 mmHg 89%
    05:00 +13°C° 0.1 mm 1 mps 664 mmHg 85%
    06:00 +14°C° 0.1 mm 1 mps 664 mmHg 82%
    07:00 +14°C° 0.1 mm 1 mps 664 mmHg 79%
    08:00 +16°C° 0.1 mm 2 mps 665 mmHg 69%
    09:00 +17°C° 0.1 mm 3 mps 665 mmHg 60%
    10:00 +18°C° 0.1 mm 3 mps 665 mmHg 51%
    11:00 +19°C° 0 mm 4 mps 665 mmHg 47%
    12:00 +19°C° 0 mm 4 mps 665 mmHg 42%
    13:00 +19°C° 0 mm 5 mps 666 mmHg 38%
    14:00 +19°C° 0.1 mm 5 mps 665 mmHg 40%
    15:00 +17°C° 0.1 mm 5 mps 665 mmHg 43%
    16:00 +17°C° 0.1 mm 4 mps 665 mmHg 45%
    17:00 +14°C° 0.3 mm 4 mps 665 mmHg 55%
    18:00 +12°C° 0.3 mm 3 mps 664 mmHg 65%
    19:00 +10°C° 0.3 mm 2 mps 664 mmHg 75%
    20:00 +10°C° 0 mm 2 mps 664 mmHg 78%
    21:00 +9°C° 0 mm 2 mps 665 mmHg 82%
    22:00 +8°C° 0 mm 2 mps 665 mmHg 85%
    23:00 +8°C° 0 mm 2 mps 665 mmHg 86%

    Day after tomorrow, 21 September, Thursday

    Time Temperature Precipitation Wind Pressure Humidity
    00:00 +9°C° 0 mm 1 mps 665 mmHg 88%
    01:00 +9°C° 0 mm 1 mps 665 mmHg 90%
    02:00 +9°C° 0.1 mm 1 mps 665 mmHg 90%
    03:00 +8°C° 0.1 mm 2 mps 665 mmHg 90%
    04:00 +8°C° 0.1 mm 2 mps 665 mmHg 90%
    05:00 +8°C° 0.1 mm 2 mps 665 mmHg 86%
    06:00 +9°C° 0.1 mm 2 mps 665 mmHg 83%
    07:00 +10°C° 0.1 mm 2 mps 666 mmHg 80%
    08:00 +12°C° 0.1 mm 2 mps 666 mmHg 73%
    09:00 +13°C° 0.1 mm 2 mps 666 mmHg 67%
    10:00 +13°C° 0.1 mm 3 mps 667 mmHg 60%
    11:00 +14°C° 0.4 mm 3 mps 667 mmHg 58%
    12:00 +14°C° 0.4 mm 4 mps 667 mmHg 55%
    13:00 +15°C° 0.4 mm 4 mps 667 mmHg 53%
    14:00 +14°C° 0.1 mm 5 mps 667 mmHg 53%
    15:00 +14°C° 0.1 mm 5 mps 666 mmHg 52%
    16:00 +13°C° 0.1 mm 5 mps 666 mmHg 52%
    17:00 +11°C° 0 mm 4 mps 666 mmHg 60%
    18:00 +10°C° 0 mm 3 mps 666 mmHg 68%
    19:00 +8°C° 0 mm 2 mps 666 mmHg 76%
    20:00 +8°C° 0 mm 2 mps 667 mmHg 79%
    21:00 +7°C° 0 mm 2 mps 667 mmHg 82%
    22:00 +7°C° 0 mm 2 mps 667 mmHg 85%
    23:00 +7°C° 0 mm 1 mps 667 mmHg 85%

    22 September, Friday

    Time Temperature Precipitation Wind Pressure Humidity
    00:00 +7°C° 0 mm 1 mps 667 mmHg 85%
    01:00 +7°C° 0 mm 1 mps 667 mmHg 85%
    02:00 +7°C° 0 mm 1 mps 667 mmHg 85%
    03:00 +7°C° 0 mm 1 mps 667 mmHg 84%
    04:00 +7°C° 0 mm 1 mps 667 mmHg 84%
    05:00 +8°C° 0 mm 1 mps 667 mmHg 79%
    06:00 +9°C° 0 mm 1 mps 668 mmHg 73%
    07:00 +10°C° 0 mm 1 mps 668 mmHg 67%
    08:00 +12°C° 0 mm 2 mps 669 mmHg 57%
    09:00 +14°C° 0 mm 2 mps 669 mmHg 47%
    10:00 +16°C° 0 mm 3 mps 670 mmHg 37%
    11:00 +15°C° 0 mm 4 mps 670 mmHg 35%
    12:00 +17°C° 0 mm 4 mps 670 mmHg 34%
    13:00 +17°C° 0 mm 5 mps 670 mmHg 32%
    14:00 +17°C° 0 mm 4 mps 670 mmHg 35%
    15:00 +15°C° 0 mm 4 mps 670 mmHg 37%
    16:00 +15°C° 0 mm 4 mps 669 mmHg 40%
    17:00 +13°C° 0 mm 3 mps 669 mmHg 48%
    18:00 +11°C° 0 mm 3 mps 669 mmHg 57%
    19:00 +9°C° 0 mm 2 mps 669 mmHg 65%
    20:00 +8°C° 0 mm 2 mps 669 mmHg 68%
    21:00 +8°C° 0 mm 1 mps 669 mmHg 72%
    22:00 +8°C° 0 mm 1 mps 669 mmHg 75%
    23:00 +8°C° 0 mm 1 mps 669 mmHg 75%

    23 September, Saturday

    Time Temperature Precipitation Wind Pressure Humidity
    00:00 +7°C° 0 mm 1 mps 669 mmHg 76%
    01:00 +7°C° 0 mm 1 mps 669 mmHg 76%
    02:00 +7°C° 0 mm 1 mps 669 mmHg 77%
    03:00 +7°C° 0 mm 1 mps 668 mmHg 78%
    04:00 +7°C° 0 mm 1 mps 668 mmHg 78%
    05:00 +8°C° 0 mm 1 mps 669 mmHg 75%
    06:00 +9°C° 0 mm 1 mps 669 mmHg 72%
    07:00 +10°C° 0 mm 1 mps 669 mmHg 68%
    08:00 +12°C° 0 mm 1 mps 670 mmHg 60%
    09:00 +14°C° 0 mm 2 mps 670 mmHg 51%
    10:00 +16°C° 0 mm 2 mps 671 mmHg 42%
    11:00 +17°C° 0 mm 3 mps 670 mmHg 40%
    12:00 +18°C° 0 mm 3 mps 670 mmHg 39%
    13:00 +19°C° 0 mm 4 mps 670 mmHg 37%
    14:00 +18°C° 0 mm 4 mps 670 mmHg 39%
    15:00 +17°C° 0 mm 4 mps 670 mmHg 42%
    16:00 +17°C° 0 mm 4 mps 669 mmHg 45%
    17:00 +14°C° 0 mm 3 mps 669 mmHg 54%
    18:00 +13°C° 0 mm 2 mps 669 mmHg 62%
    19:00 +11°C° 0 mm 1 mps 668 mmHg 71%
    20:00 +10°C° 0 mm 1 mps 668 mmHg 73%
    21:00 +10°C° 0 mm 1 mps 668 mmHg 75%
    22:00 +9°C° 0 mm 1 mps 668 mmHg 78%
    23:00 +9°C° 0 mm 1 mps 668 mmHg 77%

    24 September, Sunday

    Time Temperature Precipitation Wind Pressure Humidity
    00:00 +9°C° 0 mm 1 mps 668 mmHg 77%
    01:00 +8°C° 0 mm 1 mps 668 mmHg 77%
    02:00 +8°C° 0 mm 1 mps 667 mmHg 74%
    03:00 +8°C° 0 mm 1 mps 667 mmHg 72%
    04:00 +7°C° 0 mm 1 mps 667 mmHg 69%
    05:00 +9°C° 0 mm 1 mps 667 mmHg 62%
    06:00 +10°C° 0 mm 1 mps 668 mmHg 56%
    07:00 +11°C° 0 mm 1 mps 668 mmHg 50%
    08:00 +13°C° 0 mm 1 mps 669 mmHg 44%
    09:00 +16°C° 0 mm 1 mps 669 mmHg 37%
    10:00 +19°C° 0 mm 1 mps 670 mmHg 31%
    11:00 +19°C° 0 mm 2 mps 670 mmHg 30%
    12:00 +19°C° 0 mm 2 mps 669 mmHg 30%
    13:00 +20°C° 0 mm 2 mps 669 mmHg 29%
    14:00 +19°C° 0 mm 2 mps 669 mmHg 32%
    15:00 +19°C° 0 mm 2 mps 669 mmHg 34%
    16:00 +18°C° 0 mm 2 mps 669 mmHg 36%
    17:00 +17°C° 0 mm 2 mps 669 mmHg 42%
    18:00 +15°C° 0 mm 1 mps 668 mmHg 48%
    19:00 +13°C° 0 mm 1 mps 668 mmHg 55%
    20:00 +12°C° 0 mm 1 mps 668 mmHg 56%
    21:00 +12°C° 0 mm 1 mps 668 mmHg 57%
    22:00 +11°C° 0 mm 1 mps 668 mmHg 59%
    23:00 +11°C° 0 mm 1 mps 667 mmHg 59%
    Show more